DW5560 Weather Reports


time (UTC)temp
C
wind
direction
speed
KPH
gust
KPH
rain 1hr
cm
rain 24hr
cm
rain mn
cm
humidity
%
barometer
mb
20260507070023 22 355 1.6 4.8 0.00 0.00 0.00 43 1018.9
20260507065034 21 82 0.0 4.8 0.00 0.00 0.00 43 1018.9
20260507064027 21 55 1.6 4.8 0.00 0.00 0.00 42 1018.9
20260507063038 21 107 3.2 6.4 0.00 0.00 0.00 37 1018.8
20260507062033 21 62 3.2 6.4 0.00 0.00 0.00 44 1018.8
20260507061024 20 41 1.6 3.2 0.00 0.00 0.00 41 1018.7
20260507060018 20 108 1.6 4.8 0.00 0.00 0.00 41 1018.6
20260507055030 20 111 0.0 4.8 0.00 0.00 0.00 42 1018.5
20260507054028 19 111 1.6 4.8 0.00 0.00 0.00 43 1018.4
20260507053021 20 143 0.0 3.2 0.00 0.00 0.00 45 1018.4
20260507052035 19 143 0.0 3.2 0.00 0.00 0.00 41 1018.5
20260507051032 18 143 0.0 3.2 0.00 0.00 0.00 45 1018.4
20260507050023 18 143 1.6 4.8 0.00 0.00 0.00 49 1018.1
20260507045035 17 188 1.6 6.4 0.00 0.00 0.00 48 1018.0
20260507044027 17 211 6.4 8.0 0.00 0.00 0.00 44 1018.0
20260507043022 16 205 4.8 6.4 0.00 0.00 0.00 48 1017.9
20260507042035 16 173 3.2 6.4 0.00 0.00 0.00 49 1018.0
20260507041047 16 182 6.4 8.0 0.00 0.00 0.00 46 1018.0
20260507040019 16 208 3.2 8.0 0.00 0.00 0.00 46 1017.8
20260507035016 16 207 4.8 9.7 0.00 0.00 0.00 45 1017.8
20260507034026 16 213 6.4 9.7 0.00 0.00 0.00 45 1017.9
20260507033019 16 211 6.4 8.0 0.00 0.00 0.00 45 1017.8
20260507032030 16 201 6.4 9.7 0.00 0.00 0.00 46 1017.7
20260507031026 16 212 4.8 11.3 0.00 0.00 0.00 46 1017.6
20260507030019 16 216 6.4 9.7 0.00 0.00 0.00 46 1017.6
20260507025031 16 215 6.4 9.7 0.00 0.00 0.00 47 1017.6
20260507024024 16 203 6.4 9.7 0.00 0.00 0.00 48 1017.6
20260507023021 15 197 6.4 8.0 0.00 0.00 0.00 49 1017.5
20260507022034 16 208 3.2 4.8 0.00 0.00 0.00 50 1017.4
20260507021025 16 208 3.2 8.0 0.00 0.00 0.00 48 1017.3
20260507020038 16 187 4.8 11.3 0.00 0.00 0.00 49 1017.4
20260507015015 16 196 9.7 14.5 0.00 0.00 0.00 51 1017.3
20260507014028 16 207 9.7 11.3 0.00 0.00 0.00 49 1017.2
20260507013022 16 195 8.0 11.3 0.00 0.00 0.00 49 1017.3
20260507012035 16 200 8.0 12.9 0.00 0.00 0.00 50 1017.3
20260507011033 16 194 8.0 14.5 0.00 0.00 0.00 49 1017.4
20260507010024 16 215 9.7 12.9 0.00 0.00 0.00 48 1017.6
20260507005036 16 200 8.0 12.9 0.00 0.00 0.00 48 1017.6
20260507004030 16 191 4.8 12.9 0.00 0.00 0.00 46 1017.6
20260507003028 16 196 8.0 11.3 0.00 0.00 0.00 47 1017.7
20260507002021 16 198 9.7 14.5 0.00 0.00 0.00 47 1017.7
20260507001033 16 207 8.0 14.5 0.00 0.00 0.00 47 1017.7
20260507000030 16 186 8.0 16.1 0.00 0.00 0.00 47 1017.7
20260506235023 16 205 9.7 17.7 0.00 0.00 0.00 47 1017.7
20260506234036 16 193 8.0 14.5 0.00 0.00 0.00 47 1017.7
20260506233027 16 199 8.0 12.9 0.00 0.00 0.00 47 1017.6
20260506232022 16 203 6.4 11.3 0.00 0.00 0.00 47 1017.7
20260506231056 17 200 8.0 11.3 0.00 0.00 0.00 47 1017.9
20260506230027 17 202 6.4 9.7 0.00 0.00 0.00 47 1017.9
20260506225020 17 230 4.8 8.0 0.00 0.00 0.00 48 1017.9
20260506224031 17 211 4.8 8.0 0.00 0.00 0.00 49 1018.0
20260506223048 17 213 4.8 6.4 0.00 0.00 0.00 50 1018.0
20260506222018 17 213 0.0 4.8 0.00 0.00 0.00 50 1018.1
20260506221031 17 223 3.2 4.8 0.00 0.00 0.00 50 1018.3
20260506220045 17 206 3.2 6.4 0.00 0.00 0.00 51 1018.1
20260506215021 16 215 3.2 6.4 0.00 0.00 0.00 51 1018.1
20260506214054 17 206 6.4 9.7 0.00 0.00 0.00 51 1018.1
20260506213027 17 219 6.4 8.0 0.00 0.00 0.00 50 1018.2
20260506212020 17 204 4.8 8.0 0.00 0.00 0.00 51 1018.2
20260506211019 16 206 4.8 8.0 0.00 0.00 0.00 51 1018.4
20260506210033 16 209 6.4 9.7 0.00 0.00 0.00 52 1018.3
20260506205026 16 186 4.8 8.0 0.00 0.00 0.00 54 1018.5
20260506204043 16 208 4.8 9.7 0.00 0.00 0.00 56 1018.4
20260506203036 16 218 6.4 9.7 0.00 0.00 0.00 58 1018.5
20260506202030 16 190 8.0 11.3 0.00 0.00 0.00 60 1018.4
20260506201020 16 217 4.8 11.3 0.00 0.00 0.00 63 1018.5
20260506200017 16 205 9.7 12.9 0.00 0.00 0.00 63 1018.4
20260506195030 16 196 8.0 12.9 0.00 0.00 0.00 66 1018.5
20260506194023 16 196 8.0 11.3 0.00 0.00 0.00 67 1018.5
20260506193034 16 196 9.7 12.9 0.00 0.00 0.00 69 1018.4
20260506192032 16 180 8.0 11.3 0.00 0.00 0.00 70 1018.3
20260506191023 16 214 8.0 11.3 0.00 0.00 0.00 72 1018.2
20260506190033 16 206 6.4 9.7 0.00 0.00 0.00 72 1018.1
20260506185026 16 200 6.4 12.9 0.00 0.00 0.00 73 1018.0
20260506184040 16 190 6.4 11.3 0.00 0.00 0.00 73 1018.0
20260506183032 16 209 4.8 6.4 0.00 0.00 0.00 72 1017.8
20260506182025 16 336 0.0 3.2 0.00 0.00 0.00 71 1017.6
20260506181017 16 336 3.2 6.4 0.00 0.00 0.00 71 1017.6
20260506180031 16 336 3.2 4.8 0.00 0.00 0.00 70 1017.5
20260506175028 16 336 0.0 0.0 0.00 0.00 0.00 70 1017.4
20260506174020 17 336 0.0 0.0 0.00 0.00 0.00 69 1017.3
20260506173032 17 336 0.0 0.0 0.00 0.00 0.00 69 1017.3
20260506172024 17 336 0.0 3.2 0.00 0.00 0.00 68 1017.2
20260506171021 17 336 3.2 4.8 0.00 0.00 0.00 66 1017.2
20260506170033 18 336 3.2 6.4 0.00 0.00 0.00 65 1017.2
20260506165025 18 336 3.2 6.4 0.00 0.00 0.00 63 1017.1
20260506164057 18 336 4.8 6.4 0.00 0.00 0.00 63 1017.0
20260506163033 18 333 4.8 9.7 0.00 0.00 0.00 63 1017.0
20260506162024 18 318 6.4 9.7 0.00 0.00 0.00 62 1017.0
20260506161017 19 341 6.4 9.7 0.00 0.00 0.00 61 1017.1
20260506160050 20 19 4.8 9.7 0.00 0.00 0.00 61 1017.0
20260506155026 20 360 4.8 12.9 0.00 0.00 0.00 60 1017.0
20260506154019 20 301 4.8 9.7 0.00 0.00 0.00 59 1017.0
20260506153032 20 355 4.8 9.7 0.00 0.00 0.00 59 1017.1
20260506152029 20 330 6.4 12.9 0.00 0.00 0.00 58 1017.0
20260506151021 21 329 8.0 14.5 0.00 0.00 0.00 57 1017.0
20260506150053 21 340 6.4 12.9 0.00 0.00 0.00 57 1017.0
20260506145024 21 277 3.2 12.9 0.00 0.00 0.00 57 1017.0
20260506144021 21 320 8.0 14.5 0.00 0.00 0.00 55 1017.1
20260506143037 21 343 4.8 16.1 0.00 0.00 0.00 55 1017.1
20260506142028 21 45 6.4 12.9 0.00 0.00 0.00 55 1017.0
20260506141023 21 343 9.7 14.5 0.00 0.00 0.00 55 1017.1
20260506140034 21 12 8.0 14.5 0.00 0.00 0.00 55 1017.1
20260506135047 21 351 8.0 14.5 0.00 0.00 0.00 54 1017.2
20260506134021 22 5 4.8 17.7 0.00 0.00 0.00 53 1017.2
20260506133018 22 9 6.4 12.9 0.00 0.00 0.00 51 1017.1
20260506132028 22 343 6.4 14.5 0.00 0.00 0.00 50 1017.1
20260506131041 22 5 8.0 16.1 0.00 0.00 0.00 50 1017.1
20260506130033 22 9 8.0 14.5 0.00 0.00 0.00 49 1017.1
20260506125030 22 39 6.4 12.9 0.00 0.00 0.00 49 1017.2
20260506124020 22 360 8.0 16.1 0.00 0.00 0.00 49 1017.3
20260506123032 22 44 6.4 14.5 0.00 0.00 0.00 48 1017.3
20260506122025 22 34 8.0 16.1 0.00 0.00 0.00 47 1017.5
20260506121022 22 48 8.0 16.1 0.00 0.00 0.00 46 1017.4
20260506120035 22 355 6.4 14.5 0.00 0.00 0.00 39 1017.6
20260506115027 22 13 6.4 14.5 0.00 0.00 0.00 45 1017.6
20260506114039 22 57 6.4 16.1 0.00 0.00 0.00 47 1017.7
20260506113030 22 29 6.4 14.5 0.00 0.00 0.00 47 1017.6
20260506112024 22 57 8.0 16.1 0.00 0.00 0.00 44 1017.6
20260506111018 22 19 8.0 17.7 0.00 0.00 0.00 45 1017.8
20260506110031 22 61 8.0 14.5 0.00 0.00 0.00 46 1017.6
20260506105027 22 344 8.0 17.7 0.00 0.00 0.00 44 1017.6
20260506104039 22 5 12.9 19.3 0.00 0.00 0.00 43 1017.6
20260506103030 22 335 9.7 19.3 0.00 0.00 0.00 42 1017.6
20260506102023 22 350 6.4 17.7 0.00 0.00 0.00 41 1017.6
20260506101019 22 355 9.7 17.7 0.00 0.00 0.00 41 1017.6
20260506100032 22 19 6.4 22.5 0.00 0.00 0.00 41 1017.7
20260506095025 21 24 12.9 20.9 0.00 0.00 0.00 40 1017.6
20260506094039 22 10 8.0 19.3 0.00 0.00 0.00 40 1017.6
20260506093016 21 12 8.0 16.1 0.00 0.00 0.00 40 1017.7
20260506092027 22 42 8.0 16.1 0.00 0.00 0.00 40 1017.7
20260506091019 22 28 8.0 17.7 0.00 0.00 0.00 41 1017.9
20260506090033 22 340 6.4 16.1 0.00 0.00 0.00 39 1017.7
20260506085029 21 348 8.0 14.5 0.00 0.00 0.00 39 1017.7
20260506084022 22 337 6.4 16.1 0.00 0.00 0.00 38 1017.6
20260506083033 22 35 8.0 19.3 0.00 0.00 0.00 37 1017.6
20260506082026 22 53 4.8 14.5 0.00 0.00 0.00 37 1017.5
20260506081022 21 49 6.4 14.5 0.00 0.00 0.00 37 1017.4
20260506073030 21 360 4.8 9.7 0.00 0.00 0.00 36 1017.1
20260506072026 21 45 6.4 12.9 0.00 0.00 0.00 35 1017.1
20260506071019 21 58 4.8 9.7 0.00 0.00 0.00 36 1017.1